GW5470 Weather Reports


time (UTC)temp
C
wind
direction
speed
KPH
gust
KPH
rain 1hr
cm
rain 24hr
cm
rain mn
cm
humidity
%
barometer
mb
20260903005340 25 201 0.0 0.0 0.00 0.00 0.00 97 1016.8
20260903004836 25 201 0.0 0.0 0.00 0.00 0.00 97 1016.9
20260903004331 25 201 0.0 0.0 0.00 0.00 0.00 97 1016.9
20260903003827 25 201 0.0 0.0 0.00 0.00 0.00 96 1016.9
20260903003321 25 201 0.0 0.0 0.00 0.00 0.00 96 1016.8
20260903002821 25 201 0.0 0.0 0.00 0.00 0.00 96 1016.8
20260903002321 25 201 0.0 0.0 0.00 0.00 0.00 96 1016.7
20260903001816 25 201 0.0 0.0 0.00 0.00 0.00 95 1016.7
20260903001311 25 201 0.0 0.0 0.00 0.00 0.00 95 1016.5
20260903000811 26 201 0.0 0.0 0.00 0.00 0.00 94 1016.6
20260903000306 26 201 0.0 0.0 0.00 0.00 0.00 93 1016.5
20260902235804 26 201 0.0 0.0 0.00 0.00 0.00 93 1016.6
20260902235300 26 201 0.0 0.0 0.00 0.00 0.00 92 1016.6
20260902234800 26 201 0.0 0.0 0.00 0.00 0.00 91 1016.5
20260902234300 26 201 0.0 0.0 0.00 0.00 0.00 90 1016.5
20260902233759 27 201 0.0 0.0 0.00 0.00 0.00 90 1016.6
20260902233259 27 201 0.0 0.0 0.00 0.00 0.00 89 1016.5
20260902232758 27 201 0.0 0.0 0.00 0.00 0.00 89 1016.6
20260902232258 27 201 0.0 0.0 0.00 0.00 0.00 88 1016.6
20260902231757 27 201 0.0 0.0 0.00 0.00 0.00 87 1016.8
20260902231253 27 201 0.0 0.0 0.00 0.00 0.00 87 1016.5
20260902230753 27 201 0.0 0.0 0.00 0.00 0.00 85 1016.7
20260902230252 28 201 0.0 0.0 0.00 0.00 0.00 84 1016.7
20260902225746 28 201 0.0 0.0 0.00 0.00 0.00 84 1016.7
20260902225241 28 201 0.0 0.0 0.00 0.00 0.00 82 1016.6
20260902224740 28 201 0.0 0.0 0.00 0.00 0.00 82 1016.8
20260902224236 29 201 0.0 0.0 0.00 0.00 0.00 80 1016.7
20260902223732 29 201 0.0 0.0 0.00 0.00 0.00 80 1016.8
20260902223231 29 201 0.0 0.0 0.00 0.00 0.00 80 1016.9
20260902222731 30 201 0.0 0.0 0.00 0.00 0.00 78 1016.6
20260902222230 30 201 0.0 1.6 0.00 0.00 0.00 75 1016.6
20260902221725 30 200 0.0 0.0 0.00 0.00 0.00 74 1016.8
20260902221224 30 209 0.0 0.0 0.00 0.00 0.00 74 1016.7
20260902220720 31 209 1.6 1.6 0.00 0.00 0.00 72 1016.8
20260902220219 32 208 0.0 0.0 0.00 0.00 0.00 69 1016.9
20260902215715 32 205 0.0 1.6 0.00 0.00 0.00 70 1016.8
20260902215210 33 205 0.0 0.0 0.00 0.00 0.00 65 1016.9
20260902214707 33 205 0.0 0.0 0.00 0.00 0.00 64 1016.9
20260902214205 33 212 0.0 0.0 0.00 0.00 0.00 67 1016.9
20260902213701 33 212 0.0 0.0 0.00 0.00 0.00 62 1016.9
20260902213201 33 211 0.0 0.0 0.00 0.00 0.00 59 1016.9
20260902212655 33 191 0.0 0.0 0.00 0.00 0.00 64 1016.8
20260902212152 34 188 0.0 0.0 0.00 0.00 0.00 69 1017.0
20260902211649 34 218 0.0 0.0 0.00 0.00 0.00 63 1016.7
20260902211148 34 203 0.0 0.0 0.00 0.00 0.00 63 1017.0
20260902210648 34 210 0.0 0.0 0.00 0.00 0.00 63 1016.9
20260902210143 34 203 0.0 1.6 0.00 0.00 0.00 64 1017.0
20260902205641 34 253 1.6 1.6 0.00 0.00 0.00 56 1017.1
20260902205137 33 195 0.0 1.6 0.00 0.00 0.00 62 1017.1
20260902204632 35 234 1.6 3.2 0.00 0.00 0.00 56 1017.1
20260902204127 34 224 3.2 4.8 0.00 0.00 0.00 58 1017.1
20260902203622 35 187 0.0 1.6 0.00 0.00 0.00 53 1017.2
20260902203121 35 224 0.0 1.6 0.00 0.00 0.00 54 1017.3
20260902202617 35 190 0.0 0.0 0.00 0.00 0.00 55 1017.3
20260902202114 35 204 0.0 1.6 0.00 0.00 0.00 59 1017.4
20260902201609 35 215 1.6 1.6 0.00 0.00 0.00 60 1017.3
20260902201108 35 206 0.0 1.6 0.00 0.00 0.00 58 1017.5
20260902200603 34 212 0.0 1.6 0.00 0.00 0.00 59 1017.5
20260902200059 35 190 1.6 1.6 0.00 0.00 0.00 58 1017.6
20260902195555 34 206 0.0 1.6 0.00 0.00 0.00 64 1017.5
20260902195054 35 182 1.6 3.2 0.00 0.00 0.00 56 1017.7
20260902194553 34 205 0.0 0.0 0.00 0.00 0.00 57 1017.5
20260902194049 35 208 1.6 1.6 0.00 0.00 0.00 57 1017.7
20260902193545 35 217 0.0 1.6 0.00 0.00 0.00 54 1017.9
20260902193044 34 157 3.2 4.8 0.00 0.00 0.00 57 1018.0
20260902192543 33 194 1.6 1.6 0.00 0.00 0.00 61 1018.0
20260902192042 33 196 0.0 1.6 0.00 0.00 0.00 60 1018.1
20260902191538 33 196 0.0 0.0 0.00 0.00 0.00 68 1018.1
20260902191032 32 183 0.0 0.0 0.00 0.00 0.00 67 1018.2
20260902190527 33 181 0.0 0.0 0.00 0.00 0.00 66 1018.1
20260902190023 33 195 1.6 1.6 0.00 0.00 0.00 60 1018.2
20260902185519 34 197 1.6 1.6 0.00 0.00 0.00 57 1018.3
20260902185015 33 211 1.6 1.6 0.00 0.00 0.00 60 1018.0
20260902184509 33 198 0.0 1.6 0.00 0.00 0.00 60 1018.4
20260902184004 35 195 0.0 0.0 0.00 0.00 0.00 59 1018.1
20260902183501 35 205 1.6 1.6 0.00 0.00 0.00 55 1018.2
20260902182957 35 203 0.0 0.0 0.00 0.00 0.00 57 1018.2
20260902182453 35 220 1.6 3.2 0.00 0.00 0.00 56 1018.1
20260902181948 34 190 0.0 0.0 0.00 0.00 0.00 59 1018.3
20260902181444 34 173 6.4 6.4 0.00 0.00 0.00 57 1018.4
20260902180938 35 207 0.0 0.0 0.00 0.00 0.00 58 1018.3
20260902180434 34 189 1.6 3.2 0.00 0.00 0.00 64 1018.4
20260902175930 33 172 0.0 1.6 0.00 0.00 0.00 62 1018.3
20260902175424 34 204 0.0 0.0 0.00 0.00 0.00 57 1018.5
20260902174920 34 329 4.8 6.4 0.00 0.00 0.00 57 1018.4
20260902174417 34 200 0.0 1.6 0.00 0.00 0.00 57 1018.4
20260902173912 33 257 4.8 4.8 0.00 0.00 0.00 59 1018.6
20260902173412 33 203 0.0 0.0 0.00 0.00 0.00 59 1018.5
20260902172912 33 209 1.6 1.6 0.00 0.00 0.00 61 1018.5
20260902172411 33 316 4.8 4.8 0.00 0.00 0.00 59 1018.7
20260902171906 33 173 1.6 3.2 0.00 0.00 0.00 59 1018.7
20260902171402 33 65 4.8 4.8 0.00 0.00 0.00 60 1018.7
20260902170858 33 203 1.6 1.6 0.00 0.00 0.00 61 1018.9
20260902170353 33 201 0.0 0.0 0.00 0.00 0.00 63 1019.0
20260902165848 33 185 1.6 3.2 0.00 0.00 0.00 67 1019.1
20260902165347 32 156 1.6 3.2 0.00 0.00 0.00 63 1019.1
20260902164843 32 191 0.0 1.6 0.00 0.00 0.00 64 1018.9
20260902164338 33 199 3.2 3.2 0.00 0.00 0.00 62 1018.9
20260902163836 32 305 6.4 9.7 0.00 0.00 0.00 63 1019.2
20260902163331 32 187 1.6 1.6 0.00 0.00 0.00 64 1019.2
20260902162830 33 194 0.0 0.0 0.00 0.00 0.00 70 1019.2
20260902162325 32 186 1.6 1.6 0.00 0.00 0.00 65 1019.5
20260902161824 32 294 1.6 1.6 0.00 0.00 0.00 63 1019.5
20260902161320 32 229 1.6 3.2 0.00 0.00 0.00 67 1019.4
20260902160816 32 190 1.6 3.2 0.00 0.00 0.00 65 1019.5
20260902160311 32 203 0.0 1.6 0.00 0.00 0.00 65 1019.5
20260902155809 32 205 0.0 1.6 0.00 0.00 0.00 62 1019.8
20260902155308 33 185 1.6 1.6 0.00 0.00 0.00 62 1019.8
20260902154803 32 192 1.6 1.6 0.00 0.00 0.00 65 1019.8
20260902154259 32 127 4.8 4.8 0.00 0.00 0.00 68 1020.0
20260902153757 31 139 3.2 4.8 0.00 0.00 0.00 68 1019.9
20260902153252 32 178 0.0 1.6 0.00 0.00 0.00 68 1019.9
20260902152748 31 188 0.0 1.6 0.00 0.00 0.00 70 1020.0
20260902152244 31 156 1.6 1.6 0.00 0.00 0.00 68 1020.0
20260902151739 31 214 1.6 1.6 0.00 0.00 0.00 70 1020.1
20260902151234 30 170 0.0 1.6 0.00 0.00 0.00 68 1020.1
20260902150729 31 190 0.0 0.0 0.00 0.00 0.00 68 1020.1
20260902150226 31 195 0.0 1.6 0.00 0.00 0.00 71 1020.2
20260902145724 31 200 0.0 0.0 0.00 0.00 0.00 73 1019.9
20260902145224 30 167 1.6 3.2 0.00 0.00 0.00 72 1020.1
20260902144720 29 188 0.0 0.0 0.00 0.00 0.00 77 1020.0
20260902144216 29 183 1.6 1.6 0.00 0.00 0.00 74 1020.1
20260902143711 29 196 0.0 0.0 0.00 0.00 0.00 77 1020.0
20260902143206 28 186 0.0 0.0 0.00 0.00 0.00 79 1020.0
20260902142705 29 139 3.2 3.2 0.00 0.00 0.00 76 1020.1
20260902142158 28 196 0.0 0.0 0.00 0.00 0.00 77 1020.1
20260902141657 30 202 0.0 0.0 0.00 0.00 0.00 74 1020.0
20260902141153 30 218 0.0 0.0 0.00 0.00 0.00 72 1020.0
20260902140649 29 217 3.2 3.2 0.00 0.00 0.00 75 1020.0
20260902140143 28 191 0.0 0.0 0.00 0.00 0.00 79 1020.0
20260902135642 28 177 1.6 1.6 0.00 0.00 0.00 76 1019.9
20260902135138 28 188 0.0 0.0 0.00 0.00 0.00 83 1020.0
20260902134633 27 216 1.6 3.2 0.00 0.00 0.00 78 1020.0
20260902134132 27 165 0.0 0.0 0.00 0.00 0.00 81 1019.7
20260902133628 26 160 1.6 1.6 0.00 0.00 0.00 83 1019.8
20260902133127 26 157 1.6 1.6 0.00 0.00 0.00 83 1019.5
20260902132623 26 165 1.6 1.6 0.00 0.00 0.00 84 1019.8
20260902132118 26 159 1.6 1.6 0.00 0.00 0.00 86 1019.5
20260902131614 25 166 1.6 1.6 0.00 0.00 0.00 88 1019.5
20260902131109 24 176 0.0 1.6 0.00 0.00 0.00 90 1019.4
20260902130605 23 177 1.6 1.6 0.00 0.00 0.00 93 1019.3
20260902125556 23 182 1.6 1.6 0.00 0.00 0.00 99 1019.5
20260902125052 22 183 1.6 1.6 0.00 0.00 0.00 99 1019.9
20260902124549 22 195 0.0 0.0 0.00 0.00 0.00 99 1019.7
20260902124048 22 195 0.0 0.0 0.00 0.00 0.00 99 1019.4
20260902123544 22 205 0.0 0.0 0.00 0.00 0.00 99 1019.4
20260902123043 22 209 0.0 0.0 0.00 0.00 0.00 99 1019.3
20260902122538 21 211 0.0 0.0 0.00 0.00 0.00 99 1019.5
20260902122034 21 211 0.0 0.0 0.00 0.00 0.00 99 1019.4
20260902121533 21 211 0.0 0.0 0.00 0.00 0.00 99 1019.4
20260902121028 21 211 0.0 0.0 0.00 0.00 0.00 99 1019.2
20260902120525 21 211 0.0 0.0 0.00 0.00 0.00 99 1019.1
20260902120021 20 211 0.0 0.0 0.00 0.00 0.00 99 1019.2
20260902115515 20 211 0.0 0.0 0.00 0.00 0.00 99 1019.1
20260902115013 20 211 0.0 0.0 0.00 0.00 0.00 99 1019.1
20260902114508 20 211 0.0 0.0 0.00 0.00 0.00 99 1018.9
20260902114007 20 211 0.0 0.0 0.00 0.00 0.00 99 1018.9
20260902113503 20 211 0.0 0.0 0.00 0.00 0.00 99 1019.0
20260902113003 20 211 0.0 0.0 0.00 0.00 0.00 99 1019.0
20260902112459 20 211 0.0 0.0 0.00 0.00 0.00 99 1019.0
20260902111955 20 212 0.0 0.0 0.00 0.00 0.00 99 1019.0
20260902111451 20 212 0.0 0.0 0.00 0.00 0.00 99 1019.1
20260902110947 20 212 0.0 0.0 0.00 0.00 0.00 99 1019.0
20260902110442 20 212 0.0 0.0 0.00 0.00 0.00 99 1018.9
20260902105937 20 212 0.0 0.0 0.00 0.00 0.00 99 1019.0
20260902105433 20 212 0.0 0.0 0.00 0.00 0.00 99 1019.0
20260902104927 20 212 0.0 0.0 0.00 0.00 0.00 99 1018.9
20260902104423 20 212 0.0 0.0 0.00 0.00 0.00 99 1018.9
20260902103922 20 212 0.0 0.0 0.00 0.00 0.00 99 1019.0
20260902103418 20 212 0.0 0.0 0.00 0.00 0.00 99 1018.8
20260902102913 20 212 0.0 0.0 0.00 0.00 0.00 99 1018.9
20260902102410 20 212 0.0 0.0 0.00 0.00 0.00 99 1018.9
20260902101906 20 212 0.0 0.0 0.00 0.00 0.00 99 1018.8
20260902101400 20 212 0.0 0.0 0.00 0.00 0.00 99 1018.9
20260902100900 20 212 0.0 0.0 0.00 0.00 0.00 99 1019.0
20260902100354 20 212 0.0 0.0 0.00 0.00 0.00 99 1018.9
20260902095849 20 212 0.0 0.0 0.00 0.00 0.00 99 1018.9
20260902095349 20 212 0.0 0.0 0.00 0.00 0.00 99 1018.9
20260902094849 20 212 0.0 0.0 0.00 0.00 0.00 99 1018.9
20260902094345 20 212 0.0 0.0 0.00 0.00 0.00 99 1019.1
20260902093844 20 212 0.0 0.0 0.00 0.00 0.00 99 1019.0
20260902093339 20 212 0.0 0.0 0.00 0.00 0.00 99 1019.0
20260902092838 20 212 0.0 0.0 0.00 0.00 0.00 99 1019.1
20260902092334 20 212 0.0 0.0 0.00 0.00 0.00 99 1019.1
20260902091828 20 212 0.0 0.0 0.00 0.00 0.00 99 1019.1
20260902091324 20 212 0.0 0.0 0.00 0.00 0.00 99 1018.8
20260902090821 20 212 0.0 0.0 0.00 0.00 0.00 99 1018.8
20260902090320 20 212 0.0 0.0 0.00 0.00 0.00 99 1019.0
20260902085819 20 212 0.0 0.0 0.00 0.00 0.00 99 1018.8
20260902085314 20 212 0.0 0.0 0.00 0.00 0.00 99 1018.9
20260902084810 20 212 0.0 0.0 0.00 0.00 0.00 99 1018.8
20260902084307 20 212 0.0 0.0 0.00 0.00 0.00 99 1018.8
20260902083801 20 212 0.0 0.0 0.00 0.00 0.00 99 1018.7
20260902083255 20 212 0.0 0.0 0.00 0.00 0.00 99 1018.7
20260902082750 20 212 0.0 0.0 0.00 0.00 0.00 99 1018.7
20260902082247 21 212 0.0 0.0 0.00 0.00 0.00 99 1018.7
20260902081743 21 212 0.0 0.0 0.00 0.00 0.00 99 1018.6
20260902081239 21 212 0.0 0.0 0.00 0.00 0.00 99 1018.6
20260902080733 21 212 0.0 0.0 0.00 0.00 0.00 99 1018.6
20260902080231 21 212 0.0 0.0 0.00 0.00 0.00 99 1018.6
20260902075729 21 212 0.0 0.0 0.00 0.00 0.00 99 1018.5
20260902075227 21 212 0.0 0.0 0.00 0.00 0.00 99 1018.6
20260902074725 21 212 0.0 0.0 0.00 0.00 0.00 99 1018.6
20260902074221 21 212 0.0 0.0 0.00 0.00 0.00 99 1018.6
20260902073716 21 212 0.0 0.0 0.00 0.00 0.00 99 1018.7
20260902073212 21 212 0.0 0.0 0.00 0.00 0.00 99 1018.3
20260902072708 21 212 0.0 0.0 0.00 0.00 0.00 99 1018.6
20260902072204 21 212 0.0 0.0 0.00 0.00 0.00 99 1018.5
20260902071700 21 212 0.0 0.0 0.00 0.00 0.00 99 1018.4
20260902071155 21 212 0.0 0.0 0.00 0.00 0.00 99 1018.6
20260902070651 21 212 0.0 0.0 0.00 0.00 0.00 99 1018.5
20260902070151 21 212 0.0 0.0 0.00 0.00 0.00 99 1018.6
20260902065649 21 212 0.0 0.0 0.00 0.00 0.00 99 1018.4
20260902065145 21 212 0.0 0.0 0.00 0.00 0.00 99 1018.5
20260902064640 21 212 0.0 0.0 0.00 0.00 0.00 99 1018.3
20260902064136 21 212 0.0 0.0 0.00 0.00 0.00 99 1018.5
20260902063631 21 212 0.0 0.0 0.00 0.00 0.00 99 1018.4
20260902063126 21 212 0.0 0.0 0.00 0.00 0.00 99 1018.1
20260902062625 21 212 0.0 0.0 0.00 0.00 0.00 99 1018.3
20260902062120 21 212 0.0 0.0 0.00 0.00 0.00 99 1018.2
20260902061620 21 212 0.0 0.0 0.00 0.00 0.00 99 1018.1
20260902061116 21 212 0.0 0.0 0.00 0.00 0.00 99 1018.3
20260902060612 21 212 0.0 0.0 0.00 0.00 0.00 99 1018.2
20260902060108 21 212 0.0 0.0 0.00 0.00 0.00 99 1018.1
20260902055604 21 212 0.0 0.0 0.00 0.00 0.00 99 1018.0
20260902055059 21 212 0.0 0.0 0.00 0.00 0.00 99 1018.3
20260902054554 21 212 0.0 0.0 0.00 0.00 0.00 99 1018.3
20260902054050 21 212 0.0 0.0 0.00 0.00 0.00 99 1018.2
20260902053545 21 212 0.0 0.0 0.00 0.00 0.00 99 1018.2
20260902053044 21 212 0.0 0.0 0.00 0.00 0.00 99 1018.1
20260902052539 22 212 0.0 0.0 0.00 0.00 0.00 99 1018.0
20260902052035 22 212 0.0 0.0 0.00 0.00 0.00 99 1018.0
20260902051534 22 212 0.0 0.0 0.00 0.00 0.00 99 1018.0
20260902051033 22 212 0.0 0.0 0.00 0.00 0.00 99 1018.1
20260902050528 22 212 0.0 0.0 0.00 0.00 0.00 99 1018.0
20260902050024 22 212 0.0 0.0 0.00 0.00 0.00 99 1018.1
20260902045519 22 212 0.0 0.0 0.00 0.00 0.00 99 1018.0
20260902045015 22 212 0.0 0.0 0.00 0.00 0.00 99 1018.0
20260902044509 22 212 0.0 0.0 0.00 0.00 0.00 99 1017.8
20260902044005 22 212 0.0 0.0 0.00 0.00 0.00 99 1017.8
20260902043500 22 212 0.0 0.0 0.00 0.00 0.00 99 1017.7
20260902042955 22 212 0.0 0.0 0.00 0.00 0.00 99 1017.8
20260902042455 22 212 0.0 0.0 0.00 0.00 0.00 99 1018.0
20260902041950 22 212 0.0 0.0 0.00 0.00 0.00 99 1017.7
20260902041450 22 212 0.0 0.0 0.00 0.00 0.00 99 1017.7
20260902040951 22 212 0.0 0.0 0.00 0.00 0.00 99 1017.6
20260902040450 22 212 0.0 0.0 0.00 0.00 0.00 99 1017.6
20260902035949 22 212 0.0 0.0 0.00 0.00 0.00 99 1017.4
20260902035445 22 212 0.0 0.0 0.00 0.00 0.00 99 1017.6
20260902034944 22 212 0.0 0.0 0.00 0.00 0.00 99 1017.6
20260902034439 22 212 0.0 0.0 0.00 0.00 0.00 99 1017.6
20260902033939 22 212 0.0 0.0 0.00 0.00 0.00 99 1017.5
20260902033438 22 212 0.0 0.0 0.00 0.00 0.00 99 1017.5
20260902032937 22 212 0.0 0.0 0.00 0.00 0.00 99 1017.5
20260902032432 22 212 0.0 0.0 0.00 0.00 0.00 99 1017.5
20260902031927 22 212 0.0 0.0 0.00 0.00 0.00 99 1017.5
20260902031422 22 212 0.0 0.0 0.00 0.00 0.00 99 1017.5
20260902030919 23 212 0.0 0.0 0.00 0.00 0.00 99 1017.7
20260902030418 23 212 0.0 0.0 0.00 0.00 0.00 99 1017.5
20260902025917 23 212 0.0 0.0 0.00 0.00 0.00 99 1017.6
20260902025413 23 212 0.0 0.0 0.00 0.00 0.00 99 1017.7
20260902024908 23 212 0.0 0.0 0.00 0.00 0.00 99 1017.8
20260902024403 23 212 0.0 0.0 0.00 0.00 0.00 99 1017.5
20260902023858 23 212 0.0 0.0 0.00 0.00 0.00 99 1017.6
20260902023354 23 212 0.0 0.0 0.00 0.00 0.00 99 1017.8
20260902022853 23 212 0.0 0.0 0.00 0.00 0.00 99 1017.9
20260902022348 23 212 0.0 0.0 0.00 0.00 0.00 99 1017.8
20260902021845 23 212 0.0 0.0 0.00 0.00 0.00 99 1017.7
20260902021344 23 212 0.0 0.0 0.00 0.00 0.00 99 1017.8
20260902020840 23 212 0.0 0.0 0.00 0.00 0.00 99 1017.8
20260902020336 23 212 0.0 0.0 0.00 0.00 0.00 99 1017.8
20260902015831 23 212 0.0 0.0 0.00 0.00 0.00 99 1017.9
20260902015327 23 212 0.0 0.0 0.00 0.00 0.00 99 1017.6
20260902014822 23 212 0.0 0.0 0.00 0.00 0.00 99 1017.7
20260902014319 23 212 0.0 0.0 0.00 0.00 0.00 99 1017.9
20260902013817 23 212 0.0 0.0 0.00 0.00 0.00 98 1017.9
20260902013313 23 212 0.0 0.0 0.00 0.00 0.00 98 1017.8
20260902012809 23 212 0.0 0.0 0.00 0.00 0.00 98 1017.7
20260902012309 23 212 0.0 0.0 0.00 0.00 0.00 98 1017.5
20260902011800 24 212 0.0 0.0 0.00 0.00 0.00 98 1017.6
20260902011300 24 212 0.0 0.0 0.00 0.00 0.00 98 1017.7
20260902010758 24 212 0.0 0.0 0.00 0.00 0.00 98 1017.5
20260902010254 24 212 0.0 0.0 0.00 0.00 0.00 98 1017.6
20260902005753 24 212 0.0 0.0 0.00 0.00 0.00 98 1017.6